Location: Menands
(42.6920°N, 73.7246°W)
Time: 03:12:57
(UTC+00:00)

RESURS DK-1 - Pass Details

Date: 18 February 2026
Orbit: 526 x 529 km, 69.9° (Epoch: 8 March)

Event Time Altitude Azimuth Distance (km) Brightness Sun altitude
Rises 23:21:09 0° 349° (NNW) 2,675 5.9 -9.9°
Reaches altitude 10° 23:24:03 10° 11° (N) 1,780 4.8 -10.5°
Maximum altitude 23:26:33 16° 50° (NE) 1,433 4.0 -10.9°
Enters shadow 23:27:28 15° 67° (ENE) 1,482 3.9 -11.1°
